| time (UTC) | temp C | wind direction | speed KPH | gust KPH | rain 1hr cm | rain 24hr cm | rain mn cm | humidity % | barometer mb |
| 20260506202029 | 16 | 284 | 0.0 | 3.2 | 0.00 | 0.91 | 0.91 | 94 | 1005.5 |
| 20260506200530 | 16 | 251 | 1.6 | 6.4 | 0.00 | 0.91 | 0.91 | 94 | 1005.5 |
| 20260506195041 | 16 | 141 | 3.2 | 8.0 | 0.03 | 0.91 | 0.91 | 94 | 1005.6 |
| 20260506193541 | 16 | 315 | 1.6 | 6.4 | 0.03 | 0.91 | 0.91 | 94 | 1005.7 |
| 20260506192039 | 16 | 290 | 1.6 | 9.7 | 0.08 | 0.91 | 0.91 | 94 | 1005.7 |
| 20260506190537 | 16 | 240 | 1.6 | 11.3 | 0.13 | 0.91 | 0.91 | 94 | 1005.9 |
| 20260506185053 | 16 | 289 | 3.2 | 8.0 | 0.13 | 0.89 | 0.89 | 94 | 1006.1 |
| 20260506183550 | 16 | 224 | 3.2 | 8.0 | 0.18 | 0.89 | 0.89 | 94 | 1006.2 |
| 20260506182042 | 16 | 275 | 3.2 | 6.4 | 0.20 | 0.84 | 0.84 | 94 | 1006.3 |
| 20260506180541 | 16 | 237 | 3.2 | 8.0 | 0.20 | 0.79 | 0.79 | 94 | 1006.4 |
| 20260506175026 | 16 | 255 | 3.2 | 8.0 | 0.23 | 0.76 | 0.76 | 94 | 1006.4 |
| 20260506173546 | 16 | 259 | 1.6 | 8.0 | 0.20 | 0.71 | 0.71 | 94 | 1006.5 |
| 20260506172044 | 16 | 232 | 4.8 | 11.3 | 0.15 | 0.64 | 0.64 | 93 | 1006.6 |
| 20260506170528 | 16 | 277 | 3.2 | 11.3 | 0.10 | 0.58 | 0.58 | 93 | 1006.4 |
| 20260506165043 | 16 | 302 | 3.2 | 9.7 | 0.10 | 0.53 | 0.53 | 92 | 1006.7 |
| 20260506163542 | 16 | 301 | 6.4 | 17.7 | 0.15 | 0.51 | 0.51 | 92 | 1006.6 |
| 20260506162025 | 16 | 254 | 4.8 | 16.1 | 0.23 | 0.48 | 0.48 | 92 | 1006.7 |
| 20260506160553 | 16 | 317 | 6.4 | 16.1 | 0.25 | 0.48 | 0.48 | 92 | 1006.8 |
| 20260506155045 | 16 | 330 | 4.8 | 16.1 | 0.23 | 0.43 | 0.43 | 91 | 1006.9 |
| 20260506153542 | 16 | 348 | 4.8 | 11.3 | 0.20 | 0.36 | 0.36 | 91 | 1007.6 |
| 20260506152052 | 16 | 296 | 3.2 | 11.3 | 0.13 | 0.25 | 0.25 | 91 | 1007.5 |
| 20260506150553 | 16 | 237 | 4.8 | 12.9 | 0.15 | 0.23 | 0.23 | 91 | 1007.1 |
| 20260506145105 | 16 | 258 | 3.2 | 8.0 | 0.13 | 0.20 | 0.20 | 90 | 1007.3 |
| 20260506143608 | 16 | 248 | 1.6 | 4.8 | 0.10 | 0.15 | 0.15 | 89 | 1007.7 |
| 20260506142043 | 16 | 301 | 0.0 | 1.6 | 0.13 | 0.13 | 0.13 | 89 | 1007.8 |
| 20260506140530 | 16 | 272 | 0.0 | 4.8 | 0.08 | 0.08 | 0.08 | 88 | 1007.7 |
| 20260506135033 | 16 | 296 | 3.2 | 9.7 | 0.08 | 0.08 | 0.08 | 88 | 1007.7 |
| 20260506133532 | 17 | 269 | 3.2 | 11.3 | 0.05 | 0.05 | 0.05 | 87 | 1007.8 |
| 20260506132027 | 17 | 246 | 4.8 | 11.3 | 0.00 | 0.00 | 0.00 | 84 | 1007.8 |
| 20260506130538 | 17 | 255 | 1.6 | 6.4 | 0.00 | 0.00 | 0.00 | 83 | 1008.0 |
| 20260506125030 | 18 | 292 | 1.6 | 14.5 | 0.00 | 0.00 | 0.00 | 79 | 1007.9 |
| 20260506123558 | 18 | 232 | 3.2 | 14.5 | 0.00 | 0.00 | 0.00 | 77 | 1007.6 |
| 20260506122047 | 18 | 201 | 6.4 | 11.3 | 0.00 | 0.00 | 0.00 | 77 | 1007.3 |
| 20260506120551 | 18 | 320 | 4.8 | 11.3 | 0.00 | 0.00 | 0.00 | 77 | 1007.4 |
| 20260506115108 | 18 | 286 | 3.2 | 11.3 | 0.00 | 0.00 | 0.00 | 78 | 1007.5 |
| 20260506113547 | 17 | 262 | 6.4 | 11.3 | 0.00 | 0.00 | 0.00 | 78 | 1007.6 |
| 20260506112041 | 17 | 246 | 1.6 | 8.0 | 0.00 | 0.00 | 0.00 | 78 | 1007.6 |
| 20260506110540 | 17 | 282 | 1.6 | 8.0 | 0.00 | 0.00 | 0.00 | 78 | 1007.5 |
| 20260506105049 | 17 | 276 | 3.2 | 9.7 | 0.00 | 0.00 | 0.00 | 77 | 1007.0 |
| 20260506103555 | 17 | 255 | 3.2 | 6.4 | 0.00 | 0.00 | 0.00 | 77 | 1007.0 |
| 20260506102034 | 17 | 303 | 3.2 | 11.3 | 0.00 | 0.00 | 0.00 | 76 | 1006.9 |
| 20260506100535 | 17 | 255 | 3.2 | 8.0 | 0.00 | 0.00 | 0.00 | 75 | 1006.8 |
| 20260506095048 | 17 | 263 | 1.6 | 8.0 | 0.00 | 0.03 | 0.00 | 75 | 1007.1 |
| 20260506093545 | 17 | 38 | 3.2 | 12.9 | 0.00 | 0.03 | 0.00 | 75 | 1007.0 |
| 20260506092039 | 17 | 259 | 3.2 | 8.0 | 0.00 | 0.03 | 0.00 | 74 | 1007.0 |
| 20260506090534 | 17 | 269 | 0.0 | 11.3 | 0.00 | 0.03 | 0.00 | 74 | 1006.9 |
| 20260506085028 | 17 | 238 | 1.6 | 4.8 | 0.00 | 0.05 | 0.00 | 73 | 1007.2 |
| 20260506083558 | 17 | 278 | 1.6 | 4.8 | 0.00 | 0.05 | 0.00 | 73 | 1007.2 |
| 20260506082029 | 17 | 263 | 0.0 | 11.3 | 0.00 | 0.05 | 0.00 | 73 | 1007.3 |
| 20260506080600 | 16 | 228 | 0.0 | 4.8 | 0.00 | 0.05 | 0.00 | 73 | 1007.1 |
| 20260506072039 | 17 | 255 | 0.0 | 0.0 | 0.00 | 0.05 | 0.00 | 72 | 1007.5 |
| 20260506070538 | 17 | 255 | 0.0 | 0.0 | 0.00 | 0.05 | 0.00 | 70 | 1007.6 |
| 20260506062042 | 17 | 236 | 1.6 | 4.8 | 0.00 | 0.05 | 0.00 | 69 | 1007.8 |
| 20260506060538 | 17 | 244 | 1.6 | 3.2 | 0.00 | 0.05 | 0.00 | 68 | 1008.0 |
| 20260506050546 | 18 | 258 | 1.6 | 12.9 | 0.00 | 0.05 | 0.00 | 66 | 1008.2 |
| 20260506045040 | 18 | 228 | 3.2 | 6.4 | 0.00 | 0.05 | 0.00 | 65 | 1008.5 |
| 20260506043538 | 18 | 253 | 1.6 | 6.4 | 0.00 | 0.05 | 0.00 | 65 | 1008.3 |
| 20260506042032 | 18 | 212 | 1.6 | 6.4 | 0.00 | 0.05 | 0.00 | 64 | 1008.3 |
| 20260506040531 | 18 | 250 | 3.2 | 12.9 | 0.00 | 0.05 | 0.00 | 63 | 1008.3 |
| 20260506035045 | 19 | 243 | 1.6 | 16.1 | 0.00 | 0.05 | 0.05 | 61 | 1008.3 |
| 20260506033539 | 19 | 198 | 4.8 | 11.3 | 0.00 | 0.05 | 0.05 | 59 | 1008.3 |
| 20260506032029 | 19 | 211 | 4.8 | 11.3 | 0.00 | 0.05 | 0.05 | 60 | 1008.1 |
| 20260506030526 | 20 | 257 | 3.2 | 6.4 | 0.00 | 0.05 | 0.05 | 58 | 1008.2 |
| 20260506025030 | 20 | 251 | 3.2 | 9.7 | 0.00 | 0.05 | 0.05 | 57 | 1008.2 |
| 20260506023540 | 20 | 234 | 4.8 | 14.5 | 0.00 | 0.05 | 0.05 | 57 | 1008.2 |
| 20260506022034 | 20 | 269 | 4.8 | 14.5 | 0.00 | 0.05 | 0.05 | 56 | 1008.2 |
| 20260506020534 | 20 | 240 | 1.6 | 8.0 | 0.00 | 0.05 | 0.05 | 54 | 1008.2 |
| 20260506015045 | 21 | 231 | 0.0 | 6.4 | 0.00 | 0.05 | 0.05 | 54 | 1008.2 |
| 20260506013605 | 21 | 141 | 1.6 | 6.4 | 0.00 | 0.05 | 0.05 | 53 | 1007.9 |
| 20260506012040 | 21 | 209 | 3.2 | 12.9 | 0.00 | 0.05 | 0.05 | 53 | 1007.7 |
| 20260506010545 | 21 | 257 | 4.8 | 12.9 | 0.00 | 0.05 | 0.05 | 53 | 1007.5 |
| 20260506005103 | 21 | 268 | 3.2 | 14.5 | 0.00 | 0.05 | 0.05 | 53 | 1007.4 |
| 20260506003541 | 22 | 314 | 1.6 | 8.0 | 0.00 | 0.05 | 0.05 | 51 | 1007.3 |
| 20260506002045 | 22 | 284 | 1.6 | 8.0 | 0.00 | 0.05 | 0.05 | 49 | 1007.1 |
| 20260506000533 | 23 | 288 | 4.8 | 12.9 | 0.00 | 0.05 | 0.05 | 47 | 1007.0 |
| 20260505235045 | 23 | 215 | 3.2 | 8.0 | 0.00 | 0.05 | 0.05 | 48 | 1006.9 |
| 20260505233527 | 23 | 257 | 3.2 | 8.0 | 0.00 | 0.05 | 0.05 | 46 | 1006.7 |
| 20260505232053 | 24 | 266 | 3.2 | 12.9 | 0.00 | 0.05 | 0.05 | 46 | 1006.8 |
| 20260505230554 | 24 | 257 | 4.8 | 14.5 | 0.00 | 0.05 | 0.05 | 44 | 1006.7 |
| 20260505225044 | 25 | 265 | 8.0 | 12.9 | 0.00 | 0.05 | 0.05 | 43 | 1006.4 |
| 20260505223542 | 25 | 247 | 3.2 | 11.3 | 0.00 | 0.05 | 0.05 | 45 | 1006.4 |
| 20260505222041 | 25 | 280 | 3.2 | 11.3 | 0.00 | 0.05 | 0.05 | 46 | 1006.3 |
| 20260505220543 | 25 | 26 | 6.4 | 20.9 | 0.00 | 0.05 | 0.05 | 42 | 1006.1 |
| 20260505215040 | 25 | 116 | 8.0 | 17.7 | 0.00 | 0.05 | 0.05 | 41 | 1006.2 |
| 20260505213539 | 26 | 243 | 6.4 | 17.7 | 0.00 | 0.05 | 0.05 | 41 | 1006.1 |
| 20260505212042 | 26 | 232 | 11.3 | 19.3 | 0.00 | 0.05 | 0.05 | 40 | 1006.0 |
| 20260505210541 | 26 | 297 | 4.8 | 25.7 | 0.00 | 0.05 | 0.05 | 40 | 1006.1 |
| 20260505205053 | 26 | 141 | 8.0 | 24.1 | 0.00 | 0.05 | 0.05 | 41 | 1005.9 |
| 20260505203554 | 27 | 112 | 4.8 | 20.9 | 0.00 | 0.05 | 0.05 | 40 | 1005.8 |